Regional Weather Roundup
Issued by NWS State College, PA

Home | Current Version | Previous Version | Graphics & Text | Print | Product List | Glossary Off
Versions: 1 2 3 4 5 6 7 8 9 10 11 12 13 14 15 16 17 18 19 20 21 22 23 24 25 26 27 28 29 30 31 32 33 34 35 36 37 38 39 40 41 42 43 44 45 46 47 48 49 50

000
ASUS41 KCTP 290103
RWRCTP

REGIONAL WEATHER ROUNDUP
NATIONAL WEATHER SERVICE STATE COLLEGE PA
900 PM EDT THU MAY 28 2015

Note: "fair" indicates few or no clouds below 12,000 feet with no
significant weather and/or obstructions to visibility.

* = STATION THAT DOES NOT REPORT PRECIPITATION /E.G. RAIN...SNOW...ETC/
    THUNDER OR FOG.

PAZ002>004-007>009-013>016-020>023-029>032-290200-
WESTERN PENNSYLVANIA

CITY           SKY/WX    TMP DP  RH WIND       PRES   REMARKS
ERIE           CLEAR     69  49  48 NE3       30.24S
MEADVILLE      CLEAR     68  54  60 N6        30.25S
FRANKLIN*      CLEAR     66  52  59 CALM      30.27S
NEW CASTLE     FAIR      70  57  63 CALM      30.24R
BEAVER COUNTY  CLEAR     72  54  53 CALM      30.23S
BUTLER*        CLEAR     66  54  63 CALM      30.25S
PITTSBURGH INT PTCLDY    75  52  44 NE6       30.22S
PITTSBURGH     CLEAR     73  51  46 NE5       30.22S
INDIANA*       CLEAR     66  57  72 CALM      30.27S
LATROBE        PTCLDY    72  57  60 CALM      30.24S
WASHINGTON CO* CLEAR     64  61  88 CALM      30.23S
$$

PAZ004>006-010>012-017>019-024>028-033>037-041-042-045-046-049>053-290200-
CENTRAL PENNSYLVANIA

CITY           SKY/WX    TMP DP  RH WIND       PRES   REMARKS
BRADFORD       CLEAR     63  53  70 CALM      30.29R
DUBOIS         CLEAR     72  49  44 N3        30.26S
CLEARFIELD     CLEAR     68  53  58 N5        30.26S
JOHNSTOWN      CLEAR     68  52  56 NE6       30.26F
ALTOONA        PTCLDY    69  54  58 E3        30.25R
STATE COLLEGE  NOT AVBL
WILLIAMSPORT   PTCLDY    69  58  67 CALM      30.22R
SELINSGROVE    PTCLDY    75  52  44 NE8       30.23R
FT INDIANTOWN  NOT AVBL
CAPITAL CITY   MOCLDY    80  55  42 NE5       30.19R
HARRISBURG     MOCLDY    79  56  45 CALM      30.19R
YORK           MOCLDY    71  66  84 CALM      30.20R
$$

PAZ038>040-043-044-047-048-054-055-060>062-067>071-290200-
EASTERN PENNSYLVANIA

CITY           SKY/WX    TMP DP  RH WIND       PRES   REMARKS
SCRANTON       PTCLDY    71  50  47 NE5       30.25R
MOUNT POCONO   PTCLDY    65  48  54 NW5       30.27R
ALLENTOWN      PTCLDY    75  52  44 N6        30.20R
QUAKERTOWN*    MOCLDY    77  55  47 N7        30.21R
READING        MOCLDY    78  54  43 NE6       30.19R
LANCASTER      MOCLDY    75  58  55 N7        30.19R
COATESVILLE    MOCLDY    75  61  60 NW3       30.21R
POTTSTOWN      MOCLDY    76  59  55 N7        30.20R
BLUE BELL      MOCLDY    73  64  73 CALM      30.17S
DOYLESTOWN     MOCLDY    76  54  46 N5        30.18R
WILLOW GROVE   NOT AVBL
NORTH PHILA    PTCLDY    81  57  43 NW3       30.18R
PHILADELPHIA   MOCLDY    79  67  66 S6        30.17R
$$


USA.gov is the U.S. government's official web portal to all federal, state and local government web resources and services.